Wind_Speed
14 13 13 9 11 12 12 11 11 10 9 8 8 6 4 2 1 2 2 2 5 4 5 3 3 4 5 5 5 4 5 5 5
15 13 13 12 13 13 12 12 13 12 10 9 8 7 5 3 1 0 2 3 3 4 5 4 4 4 3 4 3 3 4 4 5
15 15 15 15 15 15 15 15 14 13 12 10 8 7 6 4 3 3 4 5 5 4 5 4 4 3 3 3 2 3 3 4 4
17 17 17 17 17 16 16 16 15 13 11 10 8 7 7 7 5 4 5 5 5 6 5 4 4 3 2 2 3 3 3 3 4
18 18 19 19 18 18 17 16 15 13 11 10 10 8 7 7 6 5 5 5 4 5 5 4 3 2 3 3 3 3 4 5 6
20 19 20 20 19 19 17 16 14 13 11 10 9 9 8 6 6 5 5 5 4 4 4 3 2 2 1 2 3 4 5 6 7
20 20 21 21 20 19 18 17 16 14 12 11 10 9 8 7 7 6 6 5 5 4 4 3 2 1 1 1 2 4 5 6 8
21 21 21 22 21 21 20 19 17 15 14 12 11 10 9 8 8 8 7 6 6 5 5 5 4 4 4 3 4 5 6 7 8
21 22 22 21 21 21 20 20 18 16 14 13 12 12 11 11 11 9 9 10 9 8 7 7 7 7 6 6 6 7 7 9 10
22 22 22 22 23 21 21 21 19 17 16 14 14 13 13 14 11 12 12 10 10 10 10 9 10 9 9 8 8 9 9 11 13
23 23 23 22 22 22 22 21 20 19 17 16 16 16 15 15 13 12 12 12 11 11 11 11 11 11 11 11 11 11 12 12 14
25 25 24 25 24 23 23 23 22 21 20 19 17 17 17 17 15 14 14 13 13 14 12 13 13 12 13 13 13 14 15 15 16
26 27 27 27 26 25 25 24 22 22 21 20 19 19 18 18 17 16 16 15 15 16 14 15 15 14 16 16 16 17 18 19 19
28 28 28 28 27 27 27 26 25 24 23 22 21 21 21 20 20 19 18 18 18 18 16 17 17 16 17 18 19 20 20 21 22
28 28 28 28 29 29 29 28 29 27 25 25 24 24 23 23 22 21 21 19 21 20 19 20 20 21 20 20 21 23 24 24 24
30 29 30 29 29 29 29 30 29 29 28 27 26 26 25 25 24 23 22 22 22 23 22 24 22 24 23 23 23 25 26 26 27
31 30 30 30 30 31 31 31 30 31 30 28 29 28 27 27 26 25 24 24 25 25 26 27 26 26 26 25 27 27 28 28 29
32 32 32 32 32 32 31 32 32 32 31 31 30 30 31 29 28 26 26 27 27 28 28 29 28 29 28 27 28 29 30 31 32
33 34 34 34 34 34 34 35 35 35 34 35 32 34 32 30 30 29 29 30 30 30 30 30 30 30 31 29 29 31 32 33 35
35 36 36 36 36 35 36 37 37 37 37 35 33 35 34 33 34 33 32 33 31 31 32 31 32 32 33 33 32 33 34 35 36
Wind_Direction
208 212 219 202 194 194 184 177 171 166 164 162 157 155 147 133 121 60 26 45 80 98 100 101 79 86 87 86 79 61 48 47 35
207 202 206 196 191 195 183 181 174 174 176 177 170 163 158 168 149 169 135 113 104 113 110 111 106 99 100 99 82 57 29 30 26
201 199 198 193 188 191 185 181 179 182 183 183 178 174 163 146 130 98 118 128 131 140 129 122 108 101 84 78 74 63 33 25 15
199 197 193 193 187 187 187 182 182 187 184 180 178 175 170 154 140 126 134 143 145 144 139 135 126 110 97 84 54 49 39 25 14
200 195 192 192 188 186 188 184 189 188 184 182 179 181 179 157 141 141 148 154 157 145 138 131 109 89 60 42 43 25 15 10 358
199 194 192 190 189 189 191 187 191 190 187 190 185 191 187 154 159 155 160 157 163 155 137 125 111 94 66 29 8 359 356 353 343
200 196 194 190 191 192 192 192 196 194 193 193 196 197 192 194 167 174 180 175 177 168 170 163 172 180 222 279 319 332 331 326 322
198 198 197 195 196 196 193 194 200 199 199 203 201 206 197 205 191 194 195 195 196 195 199 199 213 228 243 267 288 296 301 305 309
199 199 198 198 201 201 198 198 201 205 206 208 209 209 212 217 201 207 208 208 208 212 216 222 229 237 249 262 272 281 292 303 310
200 199 201 202 204 204 201 206 205 209 214 215 218 221 223 226 207 216 219 221 224 225 233 236 245 250 255 263 276 287 297 307 315
201 200 201 204 208 210 209 210 210 214 218 220 221 224 230 235 233 227 233 234 237 241 245 254 261 269 275 284 289 293 299 305 310
203 203 204 205 209 212 217 219 218 217 221 226 230 231 235 241 241 238 236 242 246 251 253 260 265 274 281 286 290 294 295 300 304
207 207 208 210 211 213 219 222 225 228 229 229 231 235 239 244 247 246 247 246 249 254 257 260 269 276 279 284 288 289 293 298 302
212 213 213 214 215 217 220 223 225 228 231 233 233 237 240 243 245 245 247 252 255 259 262 268 270 271 274 278 281 285 290 294 299
220 219 220 219 219 220 222 225 228 229 231 234 235 236 238 241 246 249 253 254 259 265 268 268 272 273 275 278 282 285 288 293 295
223 224 225 224 224 225 226 227 229 233 235 237 240 242 244 244 245 249 252 257 263 269 269 272 274 278 280 281 283 285 290 294 295
227 228 229 230 229 229 230 232 232 234 236 239 241 243 245 246 249 251 254 258 262 266 269 271 274 274 278 281 282 285 288 290 292
228 229 230 233 233 233 233 235 237 239 239 241 242 245 246 246 249 253 256 259 260 263 266 270 274 277 277 280 283 287 288 291 293
229 231 232 233 235 234 234 235 237 239 239 241 241 246 250 251 251 251 255 258 261 263 265 268 270 274 278 280 283 286 287 290 292
231 231 233 235 236 237 238 240 241 243 245 245 245 247 248 250 255 254 253 256 259 262 264 266 269 272 275 278 281 284 286 288 291
Height
3158 3160 3161 3164 3166 3167 3168 3169 3171 3173 3174 3176 3176 3177 3178 3179 3179 3180 3179 3180 3181 3181 3181 3182 3183 3184 3185 3186 3186 3187 3187 3187 3187
3157 3159 3161 3163 3165 3167 3169 3170 3172 3173 3175 3177 3177 3178 3179 3179 3180 3180 3181 3181 3181 3182 3183 3183 3185 3186 3186 3187 3187 3188 3188 3188 3188
3155 3158 3160 3163 3165 3166 3169 3171 3173 3174 3176 3178 3178 3178 3179 3179 3180 3182 3182 3182 3183 3184 3184 3185 3186 3186 3187 3188 3188 3189 3188 3189 3189
3155 3157 3159 3161 3164 3167 3168 3171 3172 3174 3176 3177 3178 3179 3178 3179 3180 3181 3182 3183 3183 3184 3185 3186 3187 3187 3188 3189 3189 3190 3190 3190 3190
3153 3156 3158 3160 3163 3166 3168 3171 3172 3174 3176 3177 3178 3178 3178 3178 3180 3181 3183 3183 3184 3185 3186 3186 3187 3188 3188 3189 3190 3190 3190 3190 3190
3152 3154 3157 3159 3162 3165 3167 3170 3172 3174 3176 3177 3177 3177 3178 3179 3179 3181 3183 3184 3185 3185 3186 3187 3187 3188 3189 3189 3190 3190 3190 3190 3190
3151 3154 3156 3158 3161 3164 3166 3169 3171 3173 3174 3176 3177 3177 3178 3178 3180 3181 3182 3183 3184 3185 3185 3186 3187 3188 3188 3189 3190 3190 3190 3190 3190
3150 3153 3155 3157 3159 3162 3164 3167 3170 3172 3173 3175 3176 3177 3178 3178 3179 3180 3182 3183 3184 3185 3185 3186 3187 3188 3188 3189 3189 3189 3189 3189 3189
3149 3152 3154 3157 3159 3162 3164 3166 3169 3171 3173 3173 3175 3176 3177 3177 3179 3180 3181 3182 3183 3184 3185 3186 3186 3187 3187 3187 3188 3188 3188 3188 3187
3147 3150 3153 3155 3157 3160 3163 3165 3167 3169 3171 3173 3174 3175 3176 3177 3178 3179 3180 3181 3182 3183 3184 3185 3185 3186 3186 3187 3187 3187 3186 3186 3185
3144 3147 3150 3154 3156 3159 3160 3163 3165 3167 3169 3171 3173 3174 3175 3176 3177 3179 3179 3180 3181 3182 3183 3185 3185 3186 3186 3186 3186 3185 3184 3183 3183
3142 3145 3148 3150 3153 3156 3158 3161 3163 3165 3167 3169 3171 3172 3173 3173 3175 3176 3177 3178 3179 3181 3182 3182 3183 3184 3184 3184 3183 3183 3182 3180 3179
3139 3142 3144 3147 3150 3153 3155 3158 3161 3163 3165 3166 3168 3169 3170 3172 3172 3174 3175 3176 3177 3177 3178 3179 3179 3181 3180 3180 3180 3179 3178 3177 3175
3136 3139 3141 3144 3147 3149 3152 3155 3157 3159 3161 3163 3165 3166 3167 3169 3169 3170 3171 3172 3174 3174 3176 3177 3177 3177 3177 3176 3176 3174 3173 3171 3171
3134 3137 3140 3142 3144 3146 3148 3151 3153 3155 3157 3159 3161 3162 3163 3165 3166 3167 3168 3168 3168 3169 3170 3171 3172 3172 3172 3171 3171 3170 3169 3168 3167
3130 3133 3136 3139 3141 3143 3145 3147 3149 3151 3153 3154 3156 3158 3159 3160 3161 3162 3163 3164 3165 3164 3166 3166 3167 3167 3167 3167 3166 3165 3165 3164 3162
3126 3129 3132 3135 3137 3139 3141 3143 3145 3146 3148 3151 3151 3153 3155 3156 3157 3158 3159 3159 3159 3160 3160 3160 3161 3161 3161 3161 3160 3160 3159 3158 3156
3120 3124 3127 3130 3132 3135 3137 3138 3140 3142 3144 3144 3147 3147 3148 3150 3151 3153 3153 3153 3153 3153 3154 3155 3155 3154 3155 3157 3155 3154 3153 3152 3151
3115 3118 3121 3124 3126 3129 3131 3132 3134 3134 3137 3137 3141 3140 3143 3144 3145 3146 3146 3146 3147 3147 3147 3148 3148 3148 3148 3150 3150 3148 3146 3145 3144
3109 3111 3114 3117 3120 3123 3124 3126 3128 3129 3131 3133 3135 3135 3136 3137 3137 3138 3140 3139 3140 3139 3139 3141 3141 3143 3142 3142 3142 3142 3140 3138 3137